EW6143 Weather Reports


time (UTC)temp
F
wind
direction
speed
knots
gust
knots
rain 1hr
in
rain 24hr
in
rain mn
in
humidity
%
barometer
mb
20260906084538 79 319 0.9 2.6 0.00 0.00 0.00 81 1012.4
20260906080042 79 317 0.9 2.6 0.00 0.00 0.00 80 1012.9
20260906074539 80 306 0.9 2.6 0.00 0.00 0.00 79 1012.7
20260906063035 81 321 0.9 4.3 0.00 0.00 0.00 76 1013.0
20260906061538 81 275 2.6 5.2 0.00 0.00 0.00 75 1012.9
20260906053034 82 289 1.7 6.1 0.00 0.00 0.00 72 1013.1
20260906051534 82 327 1.7 6.1 0.00 0.00 0.00 71 1013.0
20260906033035 85 0 0.0 2.6 0.00 0.00 0.00 69 1012.9
20260906024535 86 302 1.7 7.0 0.00 0.00 0.00 65 1013.0
20260906003038 93 262 7.0 13.9 0.00 0.00 0.00 50 1011.2
20260905233047 98 263 0.9 5.2 0.00 0.00 0.00 41 1010.5
20260905230103 98 0 0.0 6.1 0.00 0.00 0.00 42 1010.6
20260905224539 98 333 0.9 8.7 0.00 0.00 0.00 41 1010.6
20260905221539 98 0 0.0 7.8 0.00 0.00 0.00 41 1010.6
20260905213037 100 292 5.2 8.7 0.00 0.00 0.00 40 1011.0
20260905204536 101 207 0.9 3.5 0.00 0.00 0.00 39 1011.6
20260905193035 97 327 1.7 7.8 0.00 0.00 0.00 45 1012.5
20260905191535 97 319 0.9 3.5 0.00 0.00 0.00 45 1013.0
20260905183039 95 279 5.2 10.4 0.00 0.00 0.00 48 1013.9
20260905180036 95 15 1.7 7.0 0.00 0.00 0.00 44 1014.4
20260905174544 95 350 2.6 7.8 0.00 0.00 0.00 46 1014.5
20260905171535 94 265 6.1 11.3 0.00 0.00 0.00 51 1014.8
20260905170035 95 268 3.5 9.6 0.00 0.00 0.00 52 1015.0
20260905163036 96 292 1.7 7.0 0.00 0.00 0.00 50 1015.1
20260905161534 95 316 0.9 2.6 0.00 0.00 0.00 51 1015.0
20260905153036 92 81 0.9 6.1 0.00 0.00 0.00 57 1015.1
20260905144541 88 9 1.7 4.3 0.00 0.00 0.00 63 1014.7
20260905140038 85 0 0.9 2.6 0.00 0.00 0.00 69 1014.9
20260905131553 81 0 0.0 0.0 0.00 0.00 0.00 76 1014.7
20260905130036 79 0 0.0 0.0 0.00 0.00 0.00 77 1014.4
20260905121537 77 0 0.0 0.9 0.00 0.00 0.00 77 1013.8
20260905113040 78 0 0.0 0.0 0.00 0.00 0.00 75 1014.0
20260905111546 78 0 0.0 0.0 0.00 0.00 0.00 75 1014.0
20260905110034 78 0 0.0 0.0 0.00 0.00 0.00 74 1013.8
20260905103036 79 0 0.0 0.0 0.00 0.00 0.00 73 1013.9
20260905101539 79 0 0.0 0.0 0.00 0.00 0.00 73 1013.8
20260905100033 79 0 0.0 0.0 0.00 0.00 0.00 74 1013.7
20260905093036 79 0 0.0 0.0 0.00 0.00 0.00 74 1013.6
20260905091538 80 0 0.0 0.0 0.00 0.00 0.00 74 1013.4